Helicity
70 47 32 94 41 -4 70 54 56 58 45 90 47 -54 70 91 210 208 279 247 237 271 193 214 207 159 110 267 333 295 323 195 164 108 10 -7 54 49 -4 -9 4 73 89 51
52 37 49 0 60 79 65 46 73 59 97 103 43 -5 -18 120 127 228 235 260 228 201 257 237 228 232 232 195 217 249 192 125 75 11 40 43 -21 2 75 -1 34 43 64 56
28 36 0 43 62 77 47 29 88 45 30 53 72 112 23 -3 154 131 171 205 201 222 243 255 280 259 221 142 169 160 75 92 164 19 -52 -17 -31 42 53 19 43 48 43 39
57 72 18 31 35 30 47 30 18 31 53 -7 3 -24 38 123 128 128 152 203 124 185 315 348 280 225 165 136 138 98 67 83 136 24 -26 17 55 60 44 57 41 40 41 39
38 52 34 39 5 -5 10 19 54 76 31 37 31 -1 21 133 90 227 210 130 142 249 375 345 248 173 141 187 127 111 78 73 71 32 10 70 104 47 51 48 46 42 79 77
18 16 47 55 19 11 62 75 46 20 32 34 3 4 130 -4 34 161 25 -97 217 314 290 243 187 177 164 147 111 121 86 58 44 34 37 44 60 80 64 58 49 53 63 14
35 51 34 39 58 30 51 56 47 49 79 51 22 36 157 4 66 -4 -33 108 204 277 306 328 289 200 167 160 148 116 95 52 38 33 37 35 39 63 66 57 66 54 18 -48
31 44 36 79 44 3 77 60 62 44 26 0 47 85 69 146 86 111 63 166 245 273 300 325 265 183 195 188 172 117 50 18 23 37 40 48 50 67 44 91 86 44 19 26
-28 11 -1 114 107 20 33 57 20 49 48 39 28 88 68 195 144 211 64 138 229 226 276 272 218 159 129 177 180 116 64 12 22 51 40 35 36 43 59 88 67 41 30 33
-17 28 33 65 61 15 49 22 35 52 57 56 57 80 118 155 196 133 166 128 215 199 264 256 258 182 128 157 147 97 71 13 37 41 22 11 30 21 44 62 43 57 22 14
52 29 9 123 122 40 46 34 37 51 55 35 5 7 25 77 116 119 38 89 146 174 223 257 312 226 182 145 120 104 65 35 52 23 4 11 34 12 42 30 13 56 30 13
66 44 -50 13 32 61 18 28 62 108 41 67 77 57 89 189 174 79 349 121 136 179 272 330 302 202 173 87 66 58 22 38 7 19 10 50 39 26 54 37 38 35 31 11
175 147 81 41 38 46 13 42 36 38 39 57 38 24 142 147 133 97 198 -120 -7 27 285 331 261 145 156 275 226 31 63 90 60 52 36 53 49 48 51 39 39 23 25 18
122 191 102 79 38 60 47 100 72 62 17 -4 47 84 146 134 169 125 -157 99 43 79 321 264 188 173 258 227 122 30 24 12 92 36 33 59 47 35 61 41 43 17 28 16
122 134 119 119 55 56 50 15 54 51 -3 -1 -15 198 56 176 204 230 114 66 39 105 254 256 260 237 270 259 59 88 -18 8 31 13 70 73 43 65 78 57 50 23 21 29
97 118 157 104 108 116 149 43 81 99 70 55 176 182 261 180 101 36 -8 -60 19 10 164 258 263 235 165 137 73 72 -8 -22 15 31 83 95 73 100 95 85 72 41 33 44
73 147 118 34 63 59 66 79 17 55 66 58 42 49 67 7 7 -106 -138 14 -13 -7 202 231 226 190 121 70 57 26 8 69 27 38 105 122 111 150 127 119 124 70 49 65
190 190 178 64 95 104 70 1 -10 42 71 56 156 248 88 71 111 57 166 -90 -38 59 127 226 276 173 89 42 5 46 109 64 22 21 109 149 131 175 222 157 153 123 94 97
163 206 187 131 92 66 83 31 15 29 102 3 160 112 73 253 249 54 28 37 41 109 209 229 238 201 138 75 -14 81 152 111 78 122 175 124 127 211 244 255 194 166 135 125
194 181 160 157 108 86 51 35 20 39 90 317 31 15 68 129 122 -10 64 73 224 311 373 504 405 405 381 207 223 279 206 215 45 141 151 137 164 202 259 193 187 174 142 176
123 155 155 103 83 76 43 24 27 68 56 229 274 61 -43 -74 -78 -103 -2 56 171 258 290 348 431 466 423 328 282 311 273 267 145 134 142 147 193 205 242 280 226 184 229 242
113 121 125 135 111 58 72 -41 36 30 56 83 90 32 -47 40 133 103 66 104 107 126 161 209 253 316 308 294 252 230 195 146 144 148 163 181 198 212 256 264 245 256 246 222
84 70 129 108 118 92 95 62 98 29 206 160 130 65 69 89 97 138 145 109 73 70 104 120 120 138 202 199 174 177 151 128 149 178 169 181 235 254 240 255 274 282 259 234
149 260 117 157 151 177 209 206 258 266 259 187 84 78 74 73 132 81 84 87 108 96 98 89 98 125 142 157 163 127 101 106 155 172 170 192 198 195 224 248 253 238 219 176
69 179 287 167 333 191 265 261 277 128 146 171 206 107 119 113 87 90 98 85 83 102 110 99 89 91 96 109 122 126 120 131 133 133 151 164 158 170 191 211 182 150 127 87
43 72 204 228 155 117 135 107 213 237 138 74 107 179 126 112 69 57 78 69 86 138 119 96 73 80 81 91 91 93 103 115 124 131 120 105 104 109 118 143 162 172 126 126
Wind_Speed
47 33 43 51 49 45 38 39 38 31 22 30 37 22 14 20 20 22 23 23 23 23 23 24 25 26 24 26 22 22 22 26 27 33 56 53 38 46 41 37 30 18 16 11
48 54 56 53 33 39 41 45 46 43 23 29 24 15 26 11 17 18 20 22 21 22 21 23 23 25 29 28 23 24 25 30 37 52 19 42 45 42 37 33 21 19 23 19
47 45 36 38 41 43 45 47 53 52 41 35 14 6 14 8 10 20 18 20 22 21 20 21 23 26 25 23 27 29 30 36 39 46 40 44 36 28 27 27 34 27 21 21
53 57 36 41 48 41 47 50 47 31 46 35 48 65 3 10 11 9 14 15 19 18 19 21 21 24 26 27 31 32 32 34 36 39 41 35 31 26 26 29 36 32 25 28
56 54 50 28 38 26 36 44 42 44 49 50 57 43 52 21 15 6 16 13 8 16 20 19 19 23 26 29 31 33 33 33 33 34 33 32 29 27 36 41 47 50 41 46
64 52 37 41 38 40 39 44 45 51 33 39 42 44 37 40 29 10 11 7 18 18 19 19 21 25 26 29 31 33 33 34 33 32 30 33 34 37 38 46 49 49 45 49
56 59 39 34 47 27 23 34 38 34 30 30 38 43 22 20 10 17 20 23 19 19 21 20 23 24 25 27 29 30 30 32 33 31 32 33 35 36 40 45 49 49 48 45
37 47 10 21 21 31 12 15 22 40 43 43 37 36 28 26 21 20 25 20 19 20 22 21 22 23 24 26 27 28 28 30 32 29 28 29 34 39 42 47 47 49 51 25
39 46 67 20 19 23 32 18 17 36 51 52 33 32 22 22 11 19 22 12 14 19 20 23 23 23 24 25 26 28 29 27 26 24 24 27 33 38 42 46 50 52 44 36
59 53 39 4 6 22 23 41 41 39 45 44 46 29 28 19 14 27 42 12 14 15 20 24 23 25 25 23 24 25 27 27 23 23 23 28 34 38 42 47 52 52 46 51
56 43 47 18 26 35 34 29 37 42 42 46 56 44 30 25 21 38 53 45 11 16 18 23 24 27 26 22 21 21 20 21 23 20 23 27 32 37 40 47 51 51 51 55
50 38 45 35 17 12 20 31 32 27 44 42 47 45 36 29 33 33 34 48 40 17 20 26 26 26 26 28 31 31 11 15 18 18 24 28 32 37 40 45 49 50 53 54
44 42 46 54 52 48 48 30 41 46 51 56 56 44 30 25 33 36 28 36 53 23 21 24 26 27 30 38 45 62 27 33 24 22 26 29 31 36 39 43 47 48 51 52
30 33 36 45 40 49 44 47 47 45 60 70 58 40 38 36 27 23 29 23 7 14 20 23 24 26 31 37 45 65 46 43 46 35 30 30 33 35 39 43 46 46 48 49
35 44 44 51 53 56 60 55 49 59 68 61 62 35 26 39 44 39 29 37 19 45 20 21 21 25 29 33 35 42 44 44 43 39 35 34 35 37 38 41 43 44 46 47
43 51 53 61 58 62 70 69 38 28 3 16 30 26 22 31 38 42 40 0 32 47 19 16 18 22 22 25 27 34 39 39 37 37 34 34 35 35 36 39 40 41 42 44
42 48 51 68 63 66 67 60 47 44 53 60 65 30 10 16 21 23 23 19 47 36 22 14 16 18 16 21 25 27 34 36 33 31 30 29 30 30 31 34 37 38 38 39
40 42 48 56 55 59 51 41 45 53 51 48 23 13 12 22 25 36 45 66 47 34 21 18 16 13 15 18 20 16 25 25 26 27 25 21 22 23 26 29 33 33 34 36
43 43 48 49 59 66 66 49 50 51 50 38 9 14 20 23 36 55 40 33 22 16 15 13 12 13 13 11 15 14 15 17 19 21 23 21 18 20 21 25 30 31 30 31
47 42 44 46 53 54 55 40 43 52 49 25 15 5 19 15 25 23 28 38 31 26 27 22 26 26 26 26 21 16 10 22 22 26 31 33 27 20 19 20 23 26 27 28
54 59 57 56 61 69 63 43 51 60 50 20 22 17 19 18 29 20 24 25 28 29 28 29 29 29 30 25 22 20 19 23 27 32 35 36 35 30 18 23 22 22 27 28
43 46 52 57 64 80 65 70 60 45 32 21 16 13 15 22 27 27 27 28 28 30 30 31 29 29 29 28 26 27 28 28 33 34 36 37 36 34 27 22 23 24 22 26
56 50 50 50 64 52 47 43 38 15 22 19 11 11 15 20 22 24 26 27 28 28 32 32 28 28 30 28 26 29 31 29 31 33 35 36 36 36 33 26 24 23 24 23
44 42 39 39 44 36 31 34 34 27 26 26 14 8 15 18 18 19 21 24 30 30 29 29 29 29 29 29 28 25 26 28 30 31 34 34 34 34 34 31 29 26 26 27
43 44 48 39 41 36 32 33 41 32 29 31 21 17 17 18 18 20 21 21 23 24 26 28 28 28 28 28 27 26 25 26 27 29 31 32 32 32 31 32 31 29 31 29
40 45 46 44 44 42 43 36 33 33 36 30 29 24 20 23 25 23 23 22 22 24 24 26 27 26 26 26 26 25 25 24 25 27 27 26 27 28 29 29 32 36 34 34
Wind_Direction
249 284 258 214 221 259 304 286 283 273 31 348 336 16 112 121 111 113 103 91 101 95 100 95 80 76 88 80 85 61 56 77 62 32 260 253 273 244 241 211 198 110 78 76
255 244 231 257 304 293 297 274 260 261 15 344 15 165 203 135 126 125 115 110 105 97 90 98 80 67 60 66 70 55 62 70 69 51 149 237 222 180 223 210 125 71 48 50
258 251 272 288 291 294 286 276 262 264 314 321 49 119 183 157 89 121 123 118 111 99 98 95 79 68 62 64 61 58 72 77 75 74 112 134 182 170 179 171 14 40 53 51
257 244 286 288 285 295 276 263 296 311 308 332 313 291 2 229 140 80 124 115 118 107 99 98 79 66 63 61 63 65 70 83 92 98 113 124 141 159 131 74 28 40 51 39
255 259 270 311 295 309 294 305 305 307 301 308 283 339 348 32 353 13 70 110 99 107 108 102 83 76 59 64 58 65 82 91 104 111 114 119 155 132 21 15 355 354 31 11
249 269 292 291 295 290 300 298 305 293 325 318 330 338 347 330 344 36 83 65 112 95 102 100 86 83 71 70 67 68 75 80 92 104 105 93 73 55 43 10 3 5 28 2
262 259 288 301 280 306 323 309 314 324 328 329 333 331 357 324 66 110 98 92 88 86 95 89 89 83 82 79 75 70 72 77 83 70 65 59 59 41 33 38 23 26 25 321
281 279 264 295 301 302 311 330 318 308 314 327 344 336 344 30 31 349 26 67 84 87 92 91 87 86 83 85 77 72 73 84 88 66 51 39 16 42 50 39 47 42 30 81
284 285 267 281 307 298 303 305 330 311 305 315 337 341 353 356 24 334 359 82 64 90 92 92 92 93 94 90 81 84 84 83 69 51 35 31 43 45 40 48 45 44 64 80
256 284 297 164 328 309 311 297 305 313 308 313 313 334 339 347 328 331 331 342 51 84 93 97 94 92 85 85 88 93 92 97 77 57 45 54 50 42 37 45 43 50 63 48
256 277 271 295 295 306 299 307 302 303 311 310 303 316 326 325 336 337 324 290 59 101 107 98 84 90 75 83 89 83 77 88 85 54 62 58 49 37 40 42 47 53 54 41
254 273 272 283 318 346 329 302 310 312 310 309 307 312 330 342 348 4 3 229 253 75 91 86 83 85 76 75 67 36 36 77 70 57 62 63 51 38 37 36 46 51 45 36
258 260 268 277 285 292 305 302 304 308 304 294 299 313 326 343 35 49 46 324 256 155 84 78 70 77 75 61 46 13 246 239 78 66 64 68 53 39 36 40 45 46 40 33
274 268 274 272 282 298 305 303 299 308 290 276 297 311 313 315 335 1 33 145 159 25 86 74 77 79 70 78 67 59 128 173 120 88 79 73 58 48 47 42 39 39 38 33
278 267 276 275 280 287 289 299 302 294 287 291 281 315 311 312 316 327 321 329 315 243 102 76 77 81 87 89 82 83 91 105 111 103 89 81 70 57 52 38 34 32 33 33
275 270 274 270 278 282 279 283 301 310 106 318 343 344 337 331 333 319 322 292 281 232 109 70 89 97 97 100 94 99 106 120 111 106 96 90 80 68 53 43 39 34 30 33
280 274 276 268 275 280 282 283 308 305 297 314 300 318 340 337 327 346 353 321 201 188 122 90 101 106 100 118 118 121 122 109 100 99 94 94 82 73 58 53 44 34 32 33
273 280 279 273 277 279 287 308 306 299 301 313 8 59 23 0 353 346 297 210 179 154 129 115 115 92 96 122 127 75 94 80 78 92 95 86 81 67 58 55 45 37 34 25
278 281 277 279 274 277 271 299 297 297 301 320 10 56 51 12 20 314 30 19 84 65 40 86 87 66 52 83 133 114 100 18 48 45 24 37 89 64 57 43 33 33 29 23
280 282 280 283 280 280 281 298 306 301 295 352 29 338 72 63 350 6 8 20 41 32 19 10 358 352 342 338 342 355 6 62 50 27 14 14 31 50 47 48 31 33 31 27
269 269 271 274 273 269 268 295 310 288 299 309 310 347 29 8 9 38 20 9 9 8 10 6 353 338 336 346 353 21 24 28 18 6 358 4 7 14 38 29 31 32 15 19
270 270 268 266 268 267 276 281 290 300 316 0 28 81 35 12 16 18 11 8 6 4 3 358 353 343 342 342 341 336 342 353 351 351 352 0 9 14 24 34 40 33 27 357
269 273 267 267 269 283 295 294 304 308 319 330 9 33 41 29 18 19 12 11 10 7 1 359 0 351 343 340 341 333 331 343 349 350 348 355 7 9 11 25 29 32 37 28
286 289 273 276 290 285 292 305 308 312 308 313 324 24 12 12 19 14 5 359 349 352 360 3 4 359 350 350 352 355 345 347 349 347 339 354 5 8 12 12 11 15 16 14
279 286 281 280 290 293 306 310 316 301 308 307 331 339 357 6 4 357 351 351 347 353 356 356 357 358 356 353 357 359 359 355 353 349 347 353 2 9 14 14 15 17 11 11
282 280 278 280 296 293 291 304 312 321 305 308 314 333 341 341 341 345 344 344 348 346 355 353 351 352 352 352 352 352 353 359 358 349 353 4 13 17 20 21 16 18 22 22